period_start,C,m1,H,J0,J1,J2,J3,J4,J5,JA,JB,JC,JD,JJ,JK,JN,#
2015-03-19 00:02:37,0.14,4.45,0.00,23.63,26.86,29.77,4.69,27.50,996.60,2033.10,2012.70,2277.02,2457.38,349.90,340.11,29.40,0000 0000 0000 0000 000000
2015-03-19 00:07:39,0.15,4.46,0.00,23.57,26.85,29.73,4.71,27.60,996.61,2033.02,2011.63,2276.16,2456.53,350.03,340.06,29.43,0000 0000 0000 0000 000000
2015-03-19 00:12:40,0.07,4.46,0.00,23.54,26.85,29.71,4.76,27.56,996.63,2033.04,2010.90,2275.75,2455.96,350.44,340.66,29.46,0000 0000 0000 0000 000000
2015-03-19 00:17:41,0.16,4.47,0.00,23.51,26.85,29.66,4.71,27.67,996.80,2033.02,2009.88,2274.98,2455.11,349.88,340.29,29.49,0000 0000 0000 0000 000000
2015-03-19 00:22:42,0.17,4.47,0.00,23.50,26.84,29.69,4.66,27.67,997.02,2033.05,2008.90,2274.13,2454.36,350.02,340.54,29.52,0000 0000 0000 0000 000000
2015-03-19 00:27:44,0.17,4.47,0.00,23.49,26.82,29.63,4.68,27.66,997.02,2033.15,2007.85,2273.60,2453.69,350.51,340.92,29.55,0000 0000 0000 0000 000000
2015-03-19 00:32:45,0.14,4.48,0.00,23.47,26.82,29.63,4.61,27.68,997.02,2033.14,2006.69,2272.85,2452.86,349.48,339.87,29.58,0000 0000 0000 0000 000000
2015-03-19 00:37:47,0.19,4.49,0.00,23.48,26.81,29.61,4.65,27.57,996.98,2033.27,2005.70,2272.05,2452.05,349.54,340.14,29.60,0000 0000 0000 0000 000000
2015-03-19 00:42:48,0.17,4.49,0.00,23.47,26.80,29.60,4.77,27.74,996.78,2033.40,2004.68,2271.51,2451.30,351.03,341.36,29.63,0000 0000 0000 0000 000000
2015-03-19 00:47:50,0.20,4.49,0.00,23.47,26.80,29.57,4.67,27.59,996.71,2033.61,2003.65,2270.82,2450.62,349.68,340.03,29.66,0000 0000 0000 0000 000000
2015-03-19 00:52:51,0.12,4.50,0.00,23.47,26.78,29.58,4.68,27.74,996.72,2033.76,2002.73,2270.04,2449.93,349.29,339.95,29.69,0000 0000 0000 0000 000000
2015-03-19 00:57:52,0.17,4.51,0.00,23.47,26.77,29.55,4.76,27.47,996.80,2033.75,2001.65,2269.28,2449.09,350.73,341.21,29.72,0000 0000 0000 0000 000000
2015-03-19 01:02:54,0.15,4.51,0.00,23.48,26.77,29.56,4.67,27.66,996.64,2033.80,2000.78,2268.70,2448.38,349.42,339.75,29.75,0000 0000 0000 0000 000000
2015-03-19 01:07:55,0.13,4.51,0.00,23.48,26.75,29.52,4.65,27.59,996.61,2033.84,1999.78,2267.99,2447.64,349.66,339.92,29.78,0000 0000 0000 0000 000000
2015-03-19 01:12:56,0.17,4.52,0.00,23.50,26.75,29.52,4.66,27.57,996.61,2033.92,1998.69,2267.18,2446.93,349.53,339.61,29.81,0000 0000 0000 0000 000000
2015-03-19 01:17:57,0.15,4.52,0.00,23.51,26.75,29.52,4.59,27.67,996.62,2033.97,1997.72,2266.56,2446.09,349.86,340.00,29.84,0000 0000 0000 0000 000000
2015-03-19 01:22:58,0.11,4.53,0.00,23.51,26.74,29.51,4.67,27.68,996.61,2033.98,1996.74,2265.94,2445.44,349.89,340.29,29.87,0000 0000 0000 0000 000000
2015-03-19 01:28:00,0.16,4.53,0.00,23.53,26.73,29.53,4.73,27.57,996.62,2033.98,1995.75,2265.13,2444.70,350.31,340.55,29.90,0000 0000 0000 0000 000000
2015-03-19 01:33:01,0.14,4.54,0.00,23.54,26.72,29.50,4.67,27.57,996.62,2033.98,1994.74,2264.47,2443.97,349.88,339.86,29.93,0000 0000 0000 0000 000000
2015-03-19 01:38:02,0.12,4.54,0.00,23.55,26.72,29.50,4.68,27.63,996.61,2033.98,1993.76,2263.88,2443.14,349.90,340.21,29.96,0000 0000 0000 0000 000000
2015-03-19 01:43:04,0.16,4.55,0.00,23.57,26.72,29.51,4.68,27.57,996.60,2033.99,1992.76,2263.04,2442.37,350.24,340.42,29.99,0000 0000 0000 0000 000000
2015-03-19 01:48:05,0.14,4.55,0.00,23.59,26.72,29.51,4.68,27.53,996.60,2033.98,1991.89,2262.32,2441.69,349.87,339.85,30.01,0000 0000 0000 0000 000000
2015-03-19 01:53:06,0.13,4.55,0.00,23.60,26.72,29.50,4.64,27.54,996.60,2033.99,1990.83,2261.76,2440.95,350.16,340.35,30.04,0000 0000 0000 0000 000000
2015-03-19 01:58:08,0.14,4.56,0.00,23.63,26.72,29.50,4.65,27.49,996.60,2033.99,1989.80,2261.01,2440.11,350.32,340.36,30.07,0000 0000 0000 0000 000000
2015-03-19 02:03:09,0.15,4.56,0.00,23.64,26.71,29.50,4.60,27.61,996.61,2033.99,1988.89,2260.22,2439.44,349.41,339.53,30.10,0000 0000 0000 0000 000000
2015-03-19 02:08:10,0.08,4.57,0.00,23.65,26.70,29.49,4.63,27.63,996.62,2033.99,1988.05,2259.84,2438.89,349.93,339.97,30.13,0000 0000 0000 0000 000000
2015-03-19 02:13:11,0.15,4.57,0.00,23.64,26.70,29.48,4.67,27.49,996.62,2033.99,1987.31,2259.06,2438.07,350.20,340.28,30.16,0000 0000 0000 0000 000000
2015-03-19 02:18:12,0.16,4.57,0.00,23.66,26.70,29.51,4.64,27.46,996.64,2033.99,1986.42,2258.49,2437.35,350.03,340.01,30.19,0000 0000 0000 0000 000000
2015-03-19 02:23:14,0.12,4.58,0.00,23.66,26.70,29.50,4.69,27.55,996.63,2033.99,1985.46,2257.84,2436.64,350.13,340.22,30.22,0000 0000 0000 0000 000000
2015-03-19 02:28:15,0.13,4.58,0.00,23.64,26.70,29.49,4.66,27.48,996.65,2033.99,1984.37,2257.05,2435.93,349.85,339.88,30.25,0000 0000 0000 0000 000000
2015-03-19 02:33:16,0.16,4.59,0.00,23.64,26.70,29.50,4.64,27.57,996.68,2033.99,1983.61,2256.35,2435.08,349.90,340.02,30.28,0000 0000 0000 0000 000000
2015-03-19 02:38:17,0.11,4.59,0.00,23.62,26.70,29.52,4.67,27.55,996.75,2033.99,1982.70,2255.87,2434.33,350.08,340.03,30.31,0000 0000 0000 0000 000000
2015-03-19 02:43:18,0.14,4.60,0.00,23.62,26.70,29.52,4.68,27.57,996.90,2033.99,1981.74,2255.06,2433.76,350.46,340.78,30.34,0000 0000 0000 0000 000000
2015-03-19 02:48:20,0.14,4.60,0.00,23.63,26.70,29.50,4.69,27.56,997.07,2033.99,1980.83,2254.38,2433.01,350.56,340.83,30.37,0000 0000 0000 0000 000000
2015-03-19 02:53:21,0.14,4.60,0.00,23.67,26.71,29.51,4.66,27.45,997.08,2033.99,1979.81,2253.78,2432.20,350.44,340.70,30.40,0000 0000 0000 0000 000000
2015-03-19 02:58:22,0.15,4.61,0.00,23.65,26.72,29.52,4.67,27.55,997.08,2033.99,1978.78,2253.00,2431.50,349.93,340.14,30.42,0000 0000 0000 0000 000000
2015-03-19 03:03:24,0.17,4.61,0.00,23.66,26.72,29.53,4.65,27.49,997.08,2033.99,1977.67,2252.17,2430.78,349.82,340.08,30.45,0000 0000 0000 0000 000000
2015-03-19 03:08:25,0.16,4.62,0.00,23.66,26.72,29.52,4.68,27.44,997.08,2033.99,1976.61,2251.40,2429.97,349.90,340.15,30.48,0000 0000 0000 0000 000000
2015-03-19 03:13:26,0.12,4.62,0.00,23.67,26.72,29.57,4.74,27.43,997.08,2033.99,1975.70,2250.85,2429.14,351.01,340.90,30.51,0000 0000 0000 0000 000000
2015-03-19 03:18:27,0.15,4.63,0.00,23.68,26.72,29.52,4.70,27.56,997.08,2033.99,1974.73,2250.05,2428.42,349.96,340.17,30.54,0000 0000 0000 0000 000000
2015-03-19 03:23:29,0.17,4.63,0.00,23.71,26.72,29.50,4.70,27.52,997.08,2033.99,1973.69,2249.37,2427.71,350.20,340.32,30.57,0000 0000 0000 0000 000000
2015-03-19 03:28:30,0.09,4.63,0.00,23.71,26.72,29.54,4.63,27.65,997.09,2033.99,1972.87,2248.78,2426.98,349.23,339.53,30.60,0000 0000 0000 0000 000000
2015-03-19 03:33:31,0.17,4.64,0.00,23.70,26.72,29.53,4.64,27.64,997.10,2033.99,1971.81,2248.01,2426.16,349.20,339.39,30.63,0000 0000 0000 0000 000000
2015-03-19 03:38:32,0.18,4.64,0.00,23.70,26.73,29.52,4.61,27.64,997.10,2033.99,1970.73,2247.22,2425.34,349.70,339.94,30.66,0000 0000 0000 0000 000000
2015-03-19 03:43:33,0.16,4.65,0.00,23.73,26.74,29.54,4.63,27.61,997.10,2033.99,1969.75,2246.51,2424.53,349.53,339.71,30.69,0000 0000 0000 0000 000000
2015-03-19 03:48:35,0.10,4.65,0.00,23.74,26.75,29.56,4.64,27.65,997.10,2033.99,1968.79,2245.88,2423.88,349.58,339.62,30.72,0000 0000 0000 0000 000000
2015-03-19 03:53:36,0.16,4.66,0.00,23.75,26.75,29.56,4.71,27.60,997.14,2033.99,1967.80,2245.06,2423.02,350.38,340.25,30.75,0000 0000 0000 0000 000000
2015-03-19 03:58:37,0.19,4.66,0.00,23.80,26.75,29.53,4.67,27.74,997.21,2033.99,1966.73,2244.26,2422.13,350.13,340.24,30.78,0000 0000 0000 0000 000000
2015-03-19 04:03:38,0.16,4.67,0.00,23.80,26.75,29.54,4.69,27.52,997.24,2033.99,1965.72,2243.63,2421.40,350.33,340.30,30.81,0000 0000 0000 0000 000000
2015-03-19 04:08:39,0.12,4.67,0.00,23.80,26.75,29.55,4.66,27.43,997.27,2033.99,1964.76,2242.90,2420.52,350.47,340.51,30.83,0000 0000 0000 0000 000000
2015-03-19 04:13:41,0.14,4.68,0.00,23.81,26.77,29.55,4.71,27.66,997.28,2033.99,1963.79,2242.08,2419.88,350.39,340.28,30.86,0000 0000 0000 0000 000000
2015-03-19 04:18:42,0.16,4.68,0.00,23.82,26.77,29.56,4.72,27.54,997.40,2033.99,1962.80,2241.34,2419.07,349.65,339.94,30.89,0000 0000 0000 0000 000000
2015-03-19 04:23:43,0.15,4.69,0.00,23.82,26.77,29.55,4.64,27.58,997.50,2033.99,1961.76,2240.75,2418.23,350.10,340.28,30.92,0000 0000 0000 0000 000000
2015-03-19 04:28:45,0.15,4.69,0.00,23.84,26.77,29.60,4.64,27.60,997.48,2033.98,1960.70,2239.99,2417.39,350.09,340.25,30.95,0000 0000 0000 0000 000000
2015-03-19 04:33:46,0.16,4.69,0.00,23.84,26.78,29.55,4.67,27.58,997.33,2033.98,1959.71,2239.17,2416.63,349.80,339.98,30.98,0000 0000 0000 0000 000000
2015-03-19 04:38:47,0.13,4.70,0.00,23.83,26.79,29.58,4.68,27.57,997.39,2033.97,1958.67,2238.70,2415.95,349.39,339.63,31.01,0000 0000 0000 0000 000000
2015-03-19 04:43:49,0.12,4.70,0.00,23.86,26.80,29.57,4.61,27.59,997.47,2033.98,1957.78,2238.00,2415.12,349.20,339.42,31.04,0000 0000 0000 0000 000000
2015-03-19 04:48:50,0.15,4.71,0.00,23.89,26.80,29.58,4.69,27.42,997.53,2033.96,1956.90,2237.25,2414.37,349.92,339.88,31.07,0000 0000 0000 0000 000000
2015-03-19 04:53:51,0.11,4.71,0.00,23.87,26.80,29.61,4.65,27.52,997.55,2033.97,1956.03,2236.76,2413.75,350.06,340.19,31.10,0000 0000 0000 0000 000000
2015-03-19 04:58:52,0.14,4.72,0.00,23.89,26.80,29.59,4.69,27.48,997.57,2033.97,1955.12,2236.00,2412.99,350.19,340.25,31.13,0000 0000 0000 0000 000000
2015-03-19 05:03:53,0.17,4.72,0.00,23.92,26.82,29.58,4.65,27.55,997.57,2033.98,1954.14,2235.22,2412.13,349.92,339.95,31.16,0000 0000 0000 0000 000000
2015-03-19 05:08:55,0.16,4.72,0.00,23.92,26.82,29.58,4.71,27.46,997.57,2033.94,1953.15,2234.56,2411.38,350.38,340.52,31.19,0000 0000 0000 0000 000000
2015-03-19 05:13:56,0.11,4.73,0.00,23.91,26.82,29.61,4.67,27.49,997.57,2033.94,1952.18,2233.96,2410.69,350.11,340.19,31.21,0000 0000 0000 0000 000000
2015-03-19 05:18:57,0.14,4.73,0.00,23.93,26.82,29.63,4.71,27.55,997.57,2033.93,1951.32,2233.14,2409.95,350.49,340.63,31.24,0000 0000 0000 0000 000000
2015-03-19 05:23:59,0.18,4.74,0.00,23.95,26.83,29.63,4.66,27.47,997.57,2033.91,1950.17,2232.43,2409.09,350.14,340.41,31.27,0000 0000 0000 0000 000000
2015-03-19 05:29:00,0.12,4.74,0.00,23.93,26.84,29.64,4.64,27.47,997.58,2033.92,1949.24,2231.84,2408.38,349.95,340.05,31.30,0000 0000 0000 0000 000000
2015-03-19 05:34:01,0.15,4.75,0.00,23.95,26.85,29.66,4.64,27.58,997.58,2033.86,1948.27,2231.04,2407.66,350.02,339.73,31.33,0000 0000 0000 0000 000000
2015-03-19 05:39:02,0.15,4.75,0.00,23.97,26.85,29.63,4.66,27.68,997.58,2033.81,1947.19,2230.24,2406.82,349.80,339.98,31.36,0000 0000 0000 0000 000000
2015-03-19 05:44:03,0.13,4.75,0.00,23.98,26.85,29.64,4.64,27.60,997.59,2033.73,1946.24,2229.64,2406.01,350.27,340.32,31.39,0000 0000 0000 0000 000000
2015-03-19 05:49:04,0.05,4.76,0.00,24.03,26.85,29.66,4.67,27.40,997.61,2033.40,1945.24,2228.89,2405.18,350.29,340.18,31.42,0000 0000 0000 0000 000000
2015-03-19 05:54:06,0.21,4.76,0.00,24.04,26.85,29.61,4.64,27.50,997.65,2033.38,1944.22,2228.06,2404.44,349.27,339.48,31.45,0000 0000 0000 0000 000000
2015-03-19 05:59:07,0.16,4.77,0.00,24.02,26.87,29.63,4.73,27.63,997.82,2033.43,1943.20,2227.38,2403.68,350.11,340.09,31.48,0000 0000 0000 0000 000000
2015-03-19 06:04:08,0.12,4.77,0.00,24.04,26.87,29.64,4.70,27.63,997.84,2033.27,1942.01,2226.68,2402.82,350.21,340.21,31.51,0000 0000 0000 0000 000000
2015-03-19 06:09:10,0.10,4.78,0.00,24.08,26.87,29.65,4.66,27.52,997.91,2033.08,1940.95,2225.91,2402.00,350.10,340.07,31.54,0000 0000 0000 0000 000000
2015-03-19 06:14:11,0.19,4.78,0.00,24.11,26.87,29.65,4.64,27.36,997.97,2033.19,1940.02,2225.08,2401.20,350.04,340.13,31.57,0000 0000 0000 0000 000000
2015-03-19 06:19:12,0.13,4.78,0.00,24.15,26.87,29.69,4.63,27.51,998.02,2033.10,1939.12,2224.54,2400.58,350.39,340.48,31.60,0000 0000 0000 0000 000000
2015-03-19 06:24:14,0.10,4.79,0.00,24.17,26.89,29.67,4.64,27.50,998.02,2033.13,1938.32,2223.96,2399.94,349.78,339.88,31.62,0000 0000 0000 0000 000000
2015-03-19 06:29:15,0.15,4.79,0.00,24.20,26.90,29.71,4.67,27.61,998.05,2033.05,1937.33,2223.13,2399.07,349.54,339.42,31.65,0000 0000 0000 0000 000000
2015-03-19 06:34:16,0.18,4.80,0.00,24.21,26.90,29.68,4.72,27.47,998.05,2033.05,1936.25,2222.35,2398.17,350.33,340.12,31.68,0000 0000 0000 0000 000000
2015-03-19 06:39:17,0.15,4.80,0.00,24.25,26.91,29.68,4.62,27.37,998.06,2033.05,1935.29,2221.76,2397.48,350.38,340.25,31.71,0000 0000 0000 0000 000000
2015-03-19 06:44:18,0.12,4.81,0.00,24.28,26.92,29.74,4.69,27.46,998.06,2033.05,1934.37,2221.03,2396.85,350.19,340.05,31.74,0000 0000 0000 0000 000000
2015-03-19 06:49:19,0.17,4.81,0.00,24.27,26.92,29.70,4.68,27.31,998.06,2033.04,1933.46,2220.31,2396.03,350.31,340.14,31.77,0000 0000 0000 0000 000000
2015-03-19 06:54:21,0.14,4.81,0.00,24.29,26.94,29.71,4.70,27.39,998.06,2033.01,1932.50,2219.69,2395.22,349.99,339.55,31.80,0000 0000 0000 0000 000000
2015-03-19 06:59:22,0.15,4.82,0.00,24.32,26.95,29.73,4.68,27.35,998.06,2033.01,1931.46,2218.95,2394.43,350.03,339.90,31.83,0000 0000 0000 0000 000000
2015-03-19 07:04:23,0.17,4.82,0.00,24.29,26.95,29.76,4.62,27.43,998.06,2033.00,1930.41,2218.11,2393.66,349.50,339.37,31.86,0000 0000 0000 0000 000000
2015-03-19 07:09:25,0.15,4.83,0.00,24.30,26.97,29.76,4.67,27.32,998.06,2033.00,1929.49,2217.43,2392.90,350.38,340.30,31.89,0000 0000 0000 0000 000000
2015-03-19 07:14:26,0.16,4.83,0.00,24.34,26.97,29.80,4.63,27.26,998.06,2033.00,1928.48,2216.70,2392.06,349.37,339.14,31.92,0000 0000 0000 0000 000000
2015-03-19 07:19:27,0.14,4.84,0.00,24.34,26.98,29.79,4.66,27.17,998.06,2033.00,1927.53,2216.02,2391.28,350.56,340.05,31.95,0000 0000 0000 0000 000000
2015-03-19 07:24:28,0.16,4.84,0.00,24.33,27.00,29.79,4.63,27.32,998.06,2033.00,1926.65,2215.34,2390.64,349.66,339.50,31.98,0000 0000 0000 0000 000000
2015-03-19 07:29:30,0.13,4.85,0.00,24.37,27.00,29.78,4.65,27.32,998.06,2033.00,1925.70,2214.72,2389.91,350.19,340.02,32.01,0000 0000 0000 0000 000000
2015-03-19 07:34:31,0.14,4.85,0.00,24.39,27.00,29.83,4.65,27.48,998.07,2033.00,1924.75,2213.99,2389.07,349.53,339.78,32.03,0000 0000 0000 0000 000000
2015-03-19 07:39:32,0.16,4.86,0.00,24.40,27.02,29.84,4.67,27.47,998.07,2033.00,1923.85,2213.23,2388.35,350.29,339.94,32.06,0000 0000 0000 0000 000000
2015-03-19 07:44:33,0.16,4.86,0.00,24.40,27.02,29.86,4.66,27.52,998.07,2033.00,1922.87,2212.60,2387.64,349.96,339.66,32.09,0000 0000 0000 0000 000000
2015-03-19 07:49:35,0.09,4.86,0.00,24.41,27.03,29.83,4.61,27.47,998.08,2032.99,1921.97,2211.95,2386.91,349.42,339.44,32.12,0000 0000 0000 0000 000000
2015-03-19 07:54:36,0.18,4.87,0.00,24.42,27.05,29.81,4.64,27.51,998.08,2032.98,1921.09,2211.11,2386.08,350.03,339.71,32.15,0000 0000 0000 0000 000000
2015-03-19 07:59:37,0.09,4.87,0.00,24.41,27.05,29.85,4.62,27.53,998.13,2032.97,1920.65,2210.81,2385.60,349.58,339.51,32.18,0000 0000 0000 0000 000000
2015-03-19 08:04:39,0.15,4.88,0.00,24.42,27.05,29.89,4.68,27.58,998.16,2032.94,1919.62,2210.01,2384.78,350.04,339.79,32.21,0000 0000 0000 0000 000000
2015-03-19 08:09:40,0.13,4.88,0.00,24.42,27.07,29.87,4.62,27.27,998.27,2032.78,1918.67,2209.23,2383.97,349.74,339.50,32.24,0000 0000 0000 0000 000000
2015-03-19 08:14:42,0.09,4.88,0.00,24.42,27.07,29.89,4.69,27.51,998.46,2032.71,1917.81,2208.72,2383.28,350.76,340.35,32.27,0000 0000 0000 0000 000000
2015-03-19 08:19:43,0.17,4.89,0.00,24.43,27.07,29.90,4.70,27.41,998.54,2032.59,1916.74,2207.86,2382.45,350.92,340.79,32.30,0000 0000 0000 0000 000000
2015-03-19 08:24:44,0.17,4.89,0.00,24.47,27.09,29.91,4.61,27.49,998.55,2032.54,1915.51,2207.05,2381.66,349.75,339.65,32.33,0000 0000 0000 0000 000000
2015-03-19 08:29:46,0.10,4.90,0.00,24.49,27.10,29.92,4.60,27.48,998.55,2032.33,1914.70,2206.28,2380.95,349.41,339.31,32.36,0000 0000 0000 0000 000000
2015-03-19 08:34:47,0.10,4.90,0.00,24.49,27.10,29.94,4.74,27.38,998.55,2032.34,1913.91,2205.82,2380.12,350.57,340.60,32.39,0000 0000 0000 0000 000000
2015-03-19 08:39:49,0.10,4.90,0.00,24.56,27.11,29.92,4.64,27.61,998.55,2032.11,1913.13,2205.05,2379.59,349.66,339.37,32.42,0000 0000 0000 0000 000000
2015-03-19 08:44:50,0.14,4.90,0.00,24.63,27.12,29.91,4.63,27.47,998.55,2032.11,1912.39,2204.54,2378.96,349.94,339.57,32.44,0000 0000 0000 0000 000000
2015-03-19 08:49:51,0.14,4.91,0.00,24.68,27.12,29.94,4.69,27.38,998.55,2032.10,1911.28,2203.86,2378.11,349.59,339.20,32.47,0000 0000 0000 0000 000000
2015-03-19 08:54:52,0.16,4.92,0.00,24.65,27.14,29.94,4.64,27.37,998.55,2032.08,1910.19,2203.05,2377.26,350.70,340.31,32.50,0000 0000 0000 0000 000000
2015-03-19 08:59:53,0.16,4.92,0.00,24.63,27.15,29.91,4.64,27.47,998.59,2032.05,1909.25,2202.37,2376.68,350.03,339.55,32.53,0000 0000 0000 0000 000000
2015-03-19 09:04:55,0.16,4.92,0.00,24.58,27.15,29.99,4.65,27.46,998.82,2032.03,1908.21,2201.63,2375.83,349.98,339.62,32.56,0000 0000 0000 0000 000000
2015-03-19 09:09:56,0.09,4.93,0.00,24.55,27.16,29.98,4.62,27.43,998.98,2032.02,1907.48,2201.01,2375.05,349.55,339.04,32.59,0000 0000 0000 0000 000000
2015-03-19 09:14:57,0.14,4.93,0.00,24.52,27.17,30.01,4.74,27.38,998.98,2032.00,1906.91,2200.53,2374.54,350.19,340.05,32.62,0000 0000 0000 0000 000000
2015-03-19 09:19:59,0.13,4.93,0.00,24.53,27.17,30.03,4.56,27.48,999.03,2032.00,1905.85,2199.83,2373.79,349.40,339.44,32.65,0000 0000 0000 0000 000000
2015-03-19 09:25:00,0.13,4.94,0.00,24.50,27.17,30.03,4.71,27.47,999.04,2032.00,1905.03,2199.07,2373.03,350.29,340.35,32.68,0000 0000 0000 0000 000000
2015-03-19 09:30:01,0.09,4.94,0.00,24.49,27.18,30.03,4.62,27.48,999.04,2032.00,1904.40,2198.67,2372.44,349.91,340.17,32.71,0000 0000 0000 0000 000000
2015-03-19 09:35:02,0.10,4.95,0.00,24.50,27.19,30.03,4.63,27.47,999.04,2032.00,1903.92,2198.03,2371.99,349.65,339.64,32.74,0000 0000 0000 0000 000000
2015-03-19 09:40:04,0.15,4.95,0.00,24.49,27.20,30.02,4.64,27.57,999.04,2032.00,1903.24,2197.59,2371.25,349.77,339.82,32.77,0000 0000 0000 0000 000000
2015-03-19 09:45:05,0.14,4.95,0.00,24.46,27.20,30.04,4.63,27.66,999.04,2032.00,1902.06,2196.89,2370.42,349.69,339.55,32.80,0000 0000 0000 0000 000000
2015-03-19 09:50:06,0.15,4.96,0.00,24.45,27.20,30.01,4.69,27.54,999.06,2032.00,1901.00,2196.06,2369.80,349.74,339.68,32.83,0000 0000 0000 0000 000000
2015-03-19 09:55:08,0.19,4.96,0.00,24.45,27.20,30.02,4.68,27.67,999.10,2032.00,1899.82,2195.29,2369.02,349.99,340.16,32.86,0000 0000 0000 0000 000000
2015-03-19 10:00:09,0.01,4.97,0.00,24.43,27.20,30.03,4.65,27.63,999.18,2032.00,1899.50,2195.00,2368.53,349.35,339.54,32.88,0000 0000 0000 0000 000000
2015-03-19 10:05:11,0.24,4.97,0.00,24.41,27.20,30.00,4.65,27.59,999.28,2031.99,1898.43,2194.29,2367.72,349.92,339.95,32.91,0000 0000 0000 0000 000000
2015-03-19 10:10:12,0.09,4.98,0.00,24.42,27.20,30.03,4.68,27.54,999.43,2031.99,1897.42,2193.68,2367.02,349.43,339.71,32.94,0000 0000 0000 0000 000000
2015-03-19 10:15:13,0.13,4.98,0.00,24.40,27.20,30.04,4.61,27.58,999.41,2031.99,1896.81,2193.06,2366.67,349.42,339.63,32.97,0000 0000 0000 0000 000000
2015-03-19 10:20:14,0.18,4.98,0.00,24.38,27.20,30.01,4.63,27.58,999.52,2031.99,1895.61,2192.29,2365.91,350.00,340.28,33.00,0000 0000 0000 0000 000000
2015-03-19 10:25:16,0.16,4.99,0.00,24.39,27.19,30.02,4.67,27.43,999.53,2031.99,1894.46,2191.70,2365.08,350.51,340.58,33.03,0000 0000 0000 0000 000000
2015-03-19 10:30:17,0.14,4.99,0.00,24.40,27.19,30.00,4.68,27.54,999.53,2031.99,1893.45,2191.02,2364.42,349.57,340.05,33.06,0000 0000 0000 0000 000000
2015-03-19 10:35:18,0.13,5.00,0.00,24.37,27.18,30.02,4.73,27.39,999.53,2031.99,1892.96,2190.48,2363.88,350.20,340.36,33.09,0000 0000 0000 0000 000000
2015-03-19 10:40:20,0.07,5.00,0.00,24.35,27.18,30.01,4.68,27.52,999.53,2031.99,1892.05,2189.99,2363.06,350.07,340.35,33.12,0000 0000 0000 0000 000000
2015-03-19 10:45:21,0.13,5.00,0.00,24.36,27.17,30.01,4.63,27.38,999.53,2031.99,1891.67,2189.40,2362.75,349.14,339.48,33.15,0000 0000 0000 0000 000000
2015-03-19 10:50:23,0.06,5.01,0.00,24.31,27.17,30.01,4.74,27.54,999.53,2031.99,1890.93,2188.98,2362.03,350.23,340.64,33.18,0000 0000 0000 0000 000000
2015-03-19 10:55:24,0.17,5.01,0.00,24.30,27.17,30.00,4.68,27.39,999.55,2031.99,1890.09,2188.23,2361.51,350.17,340.54,33.21,0000 0000 0000 0000 000000
2015-03-19 11:00:25,0.11,5.01,0.00,24.31,27.17,29.99,4.67,27.49,999.53,2031.99,1889.37,2187.84,2360.89,350.07,340.55,33.24,0000 0000 0000 0000 000000
2015-03-19 11:05:27,0.17,5.02,0.00,24.29,27.17,29.97,4.67,27.52,999.54,2031.99,1888.04,2186.97,2360.00,349.69,340.07,33.27,0000 0000 0000 0000 000000
2015-03-19 11:10:28,0.19,5.03,0.00,24.28,27.17,29.98,4.68,27.65,999.54,2031.99,1886.95,2186.16,2359.19,350.13,340.46,33.30,0000 0000 0000 0000 000000
2015-03-19 11:15:29,0.05,5.03,0.00,24.26,27.16,29.99,4.74,27.67,999.54,2031.99,1886.46,2185.96,2358.90,350.68,341.03,33.32,0000 0000 0000 0000 000000
2015-03-19 11:20:31,0.11,5.03,0.00,24.27,27.15,29.99,4.66,27.46,999.53,2031.99,1886.31,2185.44,2358.26,350.26,340.86,33.35,0000 0000 0000 0000 000000
2015-03-19 11:25:32,0.11,5.03,0.00,24.25,27.15,29.99,4.71,27.54,999.53,2031.99,1885.38,2184.91,2357.69,349.89,340.40,33.38,0000 0000 0000 0000 000000
2015-03-19 11:30:33,0.16,5.04,0.00,24.22,27.15,29.97,4.72,27.52,999.53,2031.99,1884.61,2184.10,2357.00,349.75,340.20,33.41,0000 0000 0000 0000 000000
2015-03-19 11:35:34,0.19,5.04,0.00,24.22,27.15,29.96,4.67,27.63,999.53,2031.99,1883.56,2183.49,2356.20,349.51,339.92,33.44,0000 0000 0000 0000 000000
2015-03-19 11:40:36,0.12,5.05,0.00,24.20,27.15,29.96,4.65,27.34,999.53,2031.99,1882.63,2182.92,2355.54,349.64,340.15,33.47,0000 0000 0000 0000 000000
2015-03-19 11:45:37,0.15,5.05,0.00,24.20,27.13,29.96,4.70,27.61,999.53,2031.99,1881.54,2182.11,2354.85,349.98,340.26,33.50,0000 0000 0000 0000 000000
2015-03-19 11:50:38,0.16,5.06,0.00,24.19,27.12,29.96,4.68,27.53,999.53,2031.99,1880.59,2181.49,2354.04,350.46,340.92,33.53,0000 0000 0000 0000 000000
2015-03-19 11:55:40,0.14,5.06,0.00,24.17,27.12,29.94,4.61,27.51,999.53,2031.99,1879.61,2180.85,2353.32,349.51,340.17,33.56,0000 0000 0000 0000 000000
2015-03-19 12:00:41,0.16,5.06,0.00,24.14,27.12,29.93,4.67,27.41,999.53,2031.99,1878.60,2180.06,2352.53,349.88,340.25,33.59,0000 0000 0000 0000 000000
2015-03-19 12:05:42,0.16,5.07,0.00,24.13,27.10,29.91,4.65,27.50,999.53,2031.99,1877.59,2179.39,2351.83,349.92,340.46,33.62,0000 0000 0000 0000 000000
2015-03-19 12:10:43,0.06,5.07,0.00,24.12,27.10,29.93,4.75,27.46,999.53,2031.99,1877.00,2178.98,2351.07,350.17,340.68,33.65,0000 0000 0000 0000 000000
2015-03-19 12:15:45,0.23,5.08,0.00,24.07,27.10,29.91,4.73,27.54,999.53,2031.99,1875.72,2178.15,2350.30,350.21,340.79,33.68,0000 0000 0000 0000 000000
2015-03-19 12:20:46,0.10,5.08,0.00,24.08,27.09,29.91,4.73,27.46,999.53,2031.99,1875.21,2177.67,2349.76,350.54,341.23,33.70,0000 0000 0000 0000 000000
2015-03-19 12:25:47,0.12,5.09,0.00,24.08,27.08,29.90,4.72,27.47,999.54,2031.99,1874.19,2177.01,2349.03,350.12,340.81,33.73,0000 0000 0000 0000 000000
2015-03-19 12:30:48,0.14,5.09,0.00,24.05,27.07,29.90,4.62,27.48,999.54,2031.99,1873.66,2176.56,2348.59,349.56,340.00,33.76,0000 0000 0000 0000 000000
2015-03-19 12:35:49,0.08,5.09,0.00,24.03,27.07,29.91,4.67,27.57,999.53,2031.99,1872.79,2175.97,2347.97,350.25,340.85,33.79,0000 0000 0000 0000 000000
2015-03-19 12:40:50,0.16,5.10,0.00,24.03,27.06,29.92,4.63,27.54,999.53,2031.99,1871.96,2175.18,2347.17,349.33,339.98,33.82,0000 0000 0000 0000 000000
2015-03-19 12:45:52,0.10,5.10,0.00,24.01,27.05,29.88,4.58,27.48,999.55,2031.99,1871.05,2174.95,2346.70,349.29,340.15,33.85,0000 0000 0000 0000 000000
2015-03-19 12:50:53,0.16,5.11,0.00,23.96,27.05,29.88,4.64,27.54,999.54,2031.99,1870.08,2174.15,2346.00,348.90,339.67,33.88,0000 0000 0000 0000 000000
2015-03-19 12:55:54,0.04,5.11,0.00,23.95,27.04,29.88,4.69,27.53,999.54,2031.99,1869.87,2173.98,2345.61,350.09,340.95,33.91,0000 0000 0000 0000 000000
2015-03-19 13:00:56,0.16,5.11,0.00,23.92,27.02,29.86,4.67,27.53,999.54,2031.99,1868.96,2173.19,2345.00,350.08,340.78,33.94,0000 0000 0000 0000 000000
2015-03-19 13:05:57,0.11,5.12,0.00,23.91,27.02,29.85,4.64,27.54,999.67,2031.99,1868.19,2172.89,2344.24,349.64,340.51,33.97,0000 0000 0000 0000 000000